Satellite: CO-57
Catalog number: 27848
Epoch time:      09182.55080899
Element set:    11
Inclination:      098.7150 deg
RA of node:       190.5733 deg
Eccentricity:    0.0010606
Arg of perigee:   103.6760 deg
Mean anomaly:     256.5614 deg
Mean motion:   14.20445968 rev/day
Decay rate:      .3.3 e-06 rev/day^2
Epoch rev:           31126
Checksum:              302

Satellite: AO-51
Catalog number: 28375
Epoch time:      09182.75830528
Element set:    289
Inclination:      098.0513 deg
RA of node:       191.5111 deg
Eccentricity:    0.0085053
Arg of perigee:   080.5398 deg
Mean anomaly:     280.5385 deg
Mean motion:   14.40645921 rev/day
Decay rate:       -2.0e-08 rev/day^2
Epoch rev:           26305
Checksum:              305

Satellite: CO-56
Catalog number: 28941
Epoch time:      09182.79933625
Element set:    62
Inclination:      098.1401 deg
RA of node:       359.9973 deg
Eccentricity:    0.0080115
Arg of perigee:   077.5962 deg
Mean anomaly:     283.4235 deg
Mean motion:   15.86619436 rev/day
Decay rate:   .7.2481 e-03 rev/day^2
Epoch rev:           18956
Checksum:              360

Satellite: GENESAT1
Catalog number: 29655
Epoch time:      09182.91585910
Element set:    92
Inclination:      040.0213 deg
RA of node:       091.0058 deg
Eccentricity:    0.0003258
Arg of perigee:   270.9258 deg
Mean anomaly:     089.1194 deg
Mean motion:   15.65884563 rev/day
Decay rate:   .1.0878 e-03 rev/day^2
Epoch rev:           14478
Checksum:              318

Satellite: CP3
Catalog number: 31129
Epoch time:      09182.77987531
Element set:    55
Inclination:      097.9890 deg
RA of node:       235.1593 deg
Eccentricity:    0.0101238
Arg of perigee:   239.4819 deg
Mean anomaly:     119.6357 deg
Mean motion:   14.52143418 rev/day
Decay rate:     .1.32 e-05 rev/day^2
Epoch rev:           11700
Checksum:              305

Satellite: CO-65
Catalog number: 32785
Epoch time:      09182.44362509
Element set:    74
Inclination:      097.9458 deg
RA of node:       246.2940 deg
Eccentricity:    0.0014764
Arg of perigee:   350.2822 deg
Mean anomaly:     009.8113 deg
Mean motion:   14.81495927 rev/day
Decay rate:     .2.07 e-05 rev/day^2
Epoch rev:           06355
Checksum:              322

Satellite: KKS-1
Catalog number: 33493
Epoch time:      09183.77706598
Element set:     530
Inclination:      098.0580 deg
RA of node:       296.0552 deg
Eccentricity:    0.0019858
Arg of perigee:   187.5348 deg
Mean anomaly:     172.5572 deg
Mean motion:   14.80692483 rev/day
Decay rate:       2.45e-06 rev/day^2
Epoch rev:            2377
Checksum:              341

Satellite: SOHLA-1
Catalog number: 33496
Epoch time:      09183.77594779
Element set:     492
Inclination:      098.0394 deg
RA of node:       292.8418 deg
Eccentricity:    0.0005499
Arg of perigee:   227.3072 deg
Mean anomaly:     132.7676 deg
Mean motion:   14.69438482 rev/day
Decay rate:        1.6e-07 rev/day^2
Epoch rev:            2356
Checksum:              349

/EX
SB KEPS @ AMSAT  $ORB09183.W
Orbital Elements  09183.WEATHER

HR AMSAT ORBITAL ELEMENTS FOR WEATHER SATELLITES
FROM WA5QGD FORT WORTH,TX July 2, 2009
Send Subscribe/unsubscribe to KEPS at 
http://www.amsat.org/mailman/listinfo/keps
BID: ORB09183.W
TO ALL RADIO AMATEURS BT

Satellite: NOAA-10
Catalog number: 16969
Epoch time:      09182.66741184
Element set:    05
Inclination:      098.6907 deg
RA of node:       209.2358 deg
Eccentricity:    0.0012565
Arg of perigee:   150.9170 deg
Mean anomaly:     209.2709 deg
Mean motion:   14.27389576 rev/day
Decay rate:      .3.9 e-06 rev/day^2
Epoch rev:           18557
Checksum:              333

Satellite: NOAA-11
Catalog number: 19531
Epoch time:      09182.84560425
Element set:    6868
Inclination:      098.7849 deg
RA of node:       272.5732 deg
Eccentricity:    0.0012303
Arg of perigee:   069.2975 deg
Mean anomaly:     290.9497 deg
Mean motion:   14.14897867 rev/day
Decay rate:      -1.17e-06 rev/day^2
Epoch rev:           07159
Checksum:              360

Satellite: NOAA-12
Catalog number: 21263
Epoch time:      09182.98688847
Element set:    944
Inclination:      098.7715 deg
RA of node:       191.0524 deg
Eccentricity:    0.0013479
Arg of perigee:   101.1502 deg
Mean anomaly:     259.1194 deg
Mean motion:   14.25583610 rev/day
Decay rate:       -1.0e-08 rev/day^2
Epoch rev:           94250
Checksum:              305

Satellite: MET-3/5
Catalog number: 21655
Epoch time:      09182.96324426
Element set:    35
Inclination:      082.5526 deg
RA of node:       196.0556 deg
Eccentricity:    0.0014111
Arg of perigee:   138.5997 deg
Mean anomaly:     221.6197 deg
Mean motion:   13.17019755 rev/day
Decay rate:      .5.1 e-06 rev/day^2
Epoch rev:           85957
Checksum:              318

Satellite: MET-2/21
Catalog number: 22782
Epoch time:      09182.49733649
Element set:    5012
Inclination:      082.5470 deg
RA of node:       170.6568 deg
Eccentricity:    0.0021126
Arg of perigee:   309.5772 deg
Mean anomaly:     050.3515 deg
Mean motion:   13.83635510 rev/day
Decay rate:       -4.2e-07 rev/day^2
Epoch rev:           79958
Checksum:              313

